Weather History for CWOB - July, 2013

Change the Weather History Date:

Tuesday, July 9, 2013

  Actual Average Record
Temperature  
Mean Temperature 36 °F -  
Max Temperature 42 °F - - ()
Min Temperature 32 °F - - ()
Degree Days  
Heating Degree Days 28    
Moisture  
Dew Point -    
Average Humidity    
Maximum Humidity    
Minimum Humidity    
Precipitation  
Precipitation 0.00 in - - ()
Sea Level Pressure  
Sea Level Pressure 29.94 in    
Wind  
Wind Speed 15 mph ()    
Max Wind Speed 25 mph    
Max Gust Speed 31 mph    
T = Trace of Precipitation, MM = Missing Value Source: Averaged Metar Reports

Daily Weather History Graph

Daily Weather History Graph

Search for Another Location

Airport or City:

Trip Planner

Search our weather history database for the weather conditions in past years. The results will help you decide how hot, cold, wet, or windy it might be!

Date:

Astronomy

Jul. 09, 2013 Rise Set
Actual Time 3:27 AM ADT 11:14 PM ADT
Civil Twilight 1:54 AM ADT 12:49 AM ADT
Nautical Twilight Sun does not set Sun does not set
Astronomical Twilight Sun does not set Sun does not set
Moon 5:53 AM ADT (7/9) 10:31 PM ADT (7/9)
Length of Visible Light 22h 55m
Length of Day
19h 46m
New Moon, 2% of the Moon is Illuminated
Jul 9
New Moon
Jul 16
First Quarter
Jul 22
Full
Jul 29
Last Quarter
Aug 6
New

Hourly Weather History & Observations

Time (ADT) Temp. Windchill Dew Point Humidity Pressure Visibility Wind Dir Wind Speed Gust Speed Precip Events Conditions
12:00 AM 32.0 °F 18.9 °F - N/A% 29.95 in - NNE 24.2 mph 31.1 mph N/A Snow Light Snow
1:00 AM 32.0 °F 19.8 °F - N/A% 29.96 in - NNE 20.7 mph - N/A Snow Light Snow
1:14 AM 32.0 °F 20.1 °F - N/A% 29.84 in - NNE 19.6 mph - N/A   Clear
1:15 AM 32.0 °F 19.8 °F - N/A% 29.84 in - North 20.7 mph - N/A   Clear
1:56 AM 32.0 °F 19.5 °F - N/A% 29.84 in - NNE 21.9 mph - N/A Snow Light Snow
2:00 AM 32.0 °F 19.2 °F - N/A% 29.95 in - NNE 23.0 mph - N/A Snow Light Snow
2:47 AM 32.0 °F 18.6 °F - N/A% 29.83 in - NE 25.3 mph - N/A Snow Light Snow
3:00 AM 32 °F - - % 29.95 in - NNE 21.9 mph - -  
3:00 AM 32.0 °F 19.8 °F - N/A% 29.95 in - NNE 20.7 mph - N/A Snow Light Snow
3:30 AM 32.0 °F 20.1 °F - N/A% 29.84 in - NE 19.6 mph - N/A   Clear
3:43 AM 32.0 °F 19.5 °F - N/A% 29.84 in - NNE 21.9 mph - N/A Snow Light Snow
4:00 AM 32.0 °F 20.1 °F - N/A% 29.96 in - NE 19.6 mph 27.6 mph N/A Snow Light Snow
4:30 AM 32.0 °F 20.8 °F - N/A% 29.85 in - NE 17.3 mph - N/A   Clear
4:48 AM 32.0 °F 20.1 °F - N/A% 29.85 in - NE 19.6 mph - N/A Snow Light Snow
5:00 AM 32.0 °F 22.1 °F - N/A% 29.98 in - NE 13.8 mph - N/A Snow Light Snow
5:07 AM 32.0 °F 21.6 °F - N/A% 29.86 in - NNE 15.0 mph - N/A   Clear
6:00 AM 32.0 °F 22.5 °F - N/A% 29.98 in - NNE 12.7 mph - N/A   Clear
7:00 AM 32.0 °F 22.1 °F - N/A% 29.98 in - NNE 13.8 mph - N/A   Clear
8:00 AM 32.0 °F 20.8 °F - N/A% 29.98 in - NNE 17.3 mph - N/A   Clear
9:00 AM 32 °F - - % 29.99 in - NNE 17.3 mph - -  
9:00 AM 32.0 °F 20.5 °F - N/A% 29.99 in - NE 18.4 mph - N/A   Clear
10:00 AM 32.0 °F 21.6 °F - N/A% 29.99 in - NE 15.0 mph - N/A   Clear
10:59 AM 32.0 °F 22.1 °F - N/A% 29.88 in - NE 13.8 mph - N/A   Scattered Clouds
11:00 AM 32.0 °F 22.5 °F - N/A% 30.00 in - NE 12.7 mph - N/A   Scattered Clouds
11:39 AM 32.0 °F 23.6 °F - N/A% 29.88 in - NNE 10.4 mph - N/A   Mostly Cloudy
11:47 AM 32.0 °F 23.6 °F - N/A% 29.88 in - NNE 10.4 mph - N/A   Mostly Cloudy
12:00 PM 32.0 °F 25.6 °F - N/A% 30.00 in - NNE 6.9 mph - N/A   Mostly Cloudy
1:00 PM 35.6 °F 31.7 °F - N/A% 30.00 in - North 4.6 mph - N/A   Clear
2:00 PM 37.4 °F 32.8 °F - N/A% 29.98 in - NNW 5.8 mph - N/A   Clear
3:00 PM 40 °F - - % 29.98 in - West 4.6 mph - -  
3:00 PM 39.2 °F 35.9 °F - N/A% 29.98 in - West 4.6 mph - N/A   Clear
4:00 PM 39.2 °F 35.0 °F - N/A% 29.98 in - WSW 5.8 mph - N/A   Clear
5:00 PM 37.4 °F 31.4 °F - N/A% 29.98 in - WSW 8.1 mph - N/A   Clear
6:00 PM 39.2 °F 33.6 °F - N/A% 29.98 in - SW 8.1 mph - N/A   Clear
7:00 PM 39.2 °F 32.5 °F - N/A% 29.98 in - SW 10.4 mph - N/A   Clear
8:00 PM 39.2 °F 32.5 °F - N/A% 29.97 in - SW 10.4 mph - N/A   Clear
9:00 PM 41 °F - - % 29.96 in - SW 8.1 mph - -  
9:00 PM 41.0 °F 35.2 °F - N/A% 29.96 in - SW 9.2 mph - N/A   Clear
10:00 PM 41.0 °F 35.2 °F - N/A% 29.96 in - SW 9.2 mph - N/A   Clear
11:00 PM 42.8 °F 37.0 °F - N/A% 29.94 in - WSW 10.4 mph - N/A   Clear